START_TIME,STEP,MOV.,AL01,t_acc.,AL02,t_acc.,E37,t_acc.,H21,t_acc.
1979-07-23 15:00:33.850 ,1,0,2.,24.0,0.,24.0,3.,24.0,0.,24.0
1979-07-23 15:00:57.850 ,2,1,2.,24.0,1.,24.0,2.,24.0,0.,24.0
1979-07-23 15:01:21.850 ,2,0,5.,24.0,1.,24.0,5.,24.0,0.,24.0
1979-07-23 15:01:45.850 ,3,1,2.,24.0,1.,24.0,3.,24.0,0.,24.0
1979-07-23 15:02:09.850 ,3,0,3.,24.0,0.,24.0,3.,24.0,0.,24.0
1979-07-23 15:02:33.850 ,4,1,0.,24.0,0.,24.0,5.,24.0,0.,24.0
1979-07-23 15:02:57.850 ,4,0,1.,24.0,0.,24.0,4.,24.0,0.,24.0
1979-07-23 15:03:21.850 ,5,1,1.,24.0,0.,24.0,6.,24.0,0.,24.0
1979-07-23 15:03:45.850 ,5,0,2.,24.0,2.,24.0,5.,24.0,0.,24.0
1979-07-23 15:04:09.850 ,6,1,3.,24.0,0.,24.0,1.,24.0,0.,24.0
1979-07-23 15:04:33.850 ,6,0,7.,24.0,3.,24.0,3.,24.0,0.,24.0
1979-07-23 15:04:57.850 ,7,1,14.,24.0,0.,24.0,6.,24.0,0.,24.0
1979-07-23 15:05:21.850 ,7,0,33.,24.0,0.,24.0,4.,24.0,0.,24.0
1979-07-23 15:05:45.850 ,7,1,30.,24.0,0.,24.0,4.,24.0,0.,24.0
1979-07-23 15:06:09.850 ,7,0,30.,24.0,0.,24.0,5.,24.0,0.,24.0
1979-07-23 15:06:33.850 ,6,1,22.,24.0,0.,24.0,9.,24.0,0.,24.0
1979-07-23 15:06:57.850 ,6,0,10.,24.0,2.,24.0,4.,24.0,0.,24.0
1979-07-23 15:07:21.850 ,5,1,2.,24.0,1.,24.0,1.,24.0,0.,24.0
1979-07-23 15:07:45.850 ,5,0,7.,24.0,0.,24.0,4.,24.0,0.,24.0
1979-07-23 15:08:09.850 ,4,1,3.,24.0,0.,24.0,5.,24.0,0.,24.0
1979-07-23 15:08:33.850 ,4,0,3.,24.0,0.,24.0,4.,24.0,0.,24.0
1979-07-23 15:08:57.840 ,3,1,0.,24.0,0.,24.0,3.,24.0,0.,24.0
1979-07-23 15:09:21.840 ,3,0,1.,24.0,0.,24.0,0.,24.0,0.,24.0
1979-07-23 15:09:45.840 ,2,1,0.,24.0,0.,24.0,2.,24.0,0.,24.0
1979-07-23 15:10:09.840 ,2,0,0.,24.0,0.,24.0,3.,24.0,0.,24.0
1979-07-23 15:10:33.840 ,1,1,3.,24.0,0.,24.0,7.,24.0,0.,24.0
1979-07-23 15:10:57.840 ,1,0,2.,24.0,1.,24.0,7.,24.0,0.,24.0
1979-07-23 15:11:21.840 ,0,1,2.,24.0,1.,24.0,6.,24.0,0.,24.0
1979-07-23 15:11:45.840 ,0,0,5.,24.0,0.,24.0,2.,24.0,0.,24.0
1979-07-23 15:12:09.840 ,0,1,3.,24.0,0.,24.0,3.,24.0,0.,24.0
1979-07-23 15:12:33.840 ,0,0,0.,24.0,3.,24.0,8.,24.0,0.,24.0
1979-07-23 15:12:57.840 ,1,1,9.,24.0,0.,24.0,2.,24.0,0.,24.0
1979-07-23 15:13:21.840 ,1,0,3.,24.0,1.,24.0,4.,24.0,0.,24.0
1979-07-23 15:13:45.840 ,0,0,3.,24.0,0.,24.0,4.,24.0,0.,24.0
1979-07-23 15:14:09.840 ,0,0,6.,24.0,2.,24.0,8.,24.0,0.,24.0
1979-07-23 15:14:33.840 ,7,0,29.,24.0,1.,24.0,4.,24.0,0.,24.0
1979-07-23 15:14:57.840 ,7,0,34.,24.0,0.,24.0,4.,24.0,0.,24.0
1979-07-23 15:15:21.840 ,7,0,40.,24.0,0.,24.0,3.,24.0,0.,24.0
1979-07-23 15:15:45.840 ,7,0,36.,24.0,0.,24.0,6.,24.0,0.,24.0
1979-07-23 15:16:09.840 ,7,0,36.,24.0,0.,24.0,4.,24.0,0.,24.0
1979-07-23 15:16:33.840 ,7,0,35.,24.0,0.,24.0,3.,24.0,0.,24.0
1979-07-23 15:16:57.840 ,7,0,38.,24.0,0.,24.0,3.,24.0,0.,24.0
1979-07-23 15:17:21.840 ,7,0,40.,24.0,0.,24.0,3.,24.0,0.,24.0
1979-07-23 15:17:45.840 ,7,0,42.,24.0,0.,24.0,7.,24.0,0.,24.0
1979-07-23 15:18:09.840 ,7,0,24.,24.0,0.,24.0,8.,24.0,0.,24.0
1979-07-23 15:18:33.840 ,7,0,28.,24.0,0.,24.0,2.,24.0,0.,24.0
1979-07-23 15:18:57.840 ,7,0,,0,,0,,0,,0
1979-07-23 15:19:21.840 ,7,0,37.,24.0,0.,24.0,8.,24.0,0.,24.0
1979-07-23 15:19:45.840 ,7,0,32.,24.0,0.,24.0,6.,24.0,0.,24.0
1979-07-23 15:20:09.840 ,7,0,33.,24.0,0.,24.0,6.,24.0,0.,24.0
1979-07-23 15:20:33.840 ,7,0,25.,24.0,0.,24.0,6.,24.0,0.,24.0
1979-07-23 15:20:57.840 ,7,0,31.,24.0,1.,24.0,2.,24.0,0.,24.0
1979-07-23 15:21:21.840 ,7,0,27.,24.0,0.,24.0,0.,24.0,0.,24.0
1979-07-23 15:21:45.840 ,7,0,29.,24.0,0.,24.0,3.,24.0,0.,24.0
1979-07-23 15:22:09.840 ,7,0,18.,24.0,0.,24.0,8.,24.0,0.,24.0
1979-07-23 15:22:33.840 ,7,0,36.,24.0,0.,24.0,4.,24.0,0.,24.0
1979-07-23 15:22:57.840 ,7,0,41.,24.0,0.,24.0,6.,24.0,0.,24.0
1979-07-23 15:23:21.840 ,7,0,20.,24.0,0.,24.0,4.,24.0,0.,24.0
